Satellite: NCUBE2
Catalog number: 28897
Epoch time:      08023.70683376
Element set:     460
Inclination:      098.1119 deg
RA of node:       280.9290 deg
Eccentricity:    0.0017800
Arg of perigee:   143.1367 deg
Mean anomaly:     217.1064 deg
Mean motion:   14.59795888 rev/day
Decay rate:       1.27e-06 rev/day^2
Epoch rev:           11154
Checksum:              315

Satellite: FCAL
Catalog number: 29667
Epoch time:      08024.90397894
Element set:     696
Inclination:      051.6333 deg
RA of node:       003.3456 deg
Eccentricity:    0.0010129
Arg of perigee:   128.4981 deg
Mean anomaly:     231.6944 deg
Mean motion:   15.99757259 rev/day
Decay rate:     2.9696e-04 rev/day^2
Epoch rev:            6334
Checksum:              345

Satellite: FALCON
Catalog number: 30776
Epoch time:      08024.22452531
Element set:     233
Inclination:      035.4350 deg
RA of node:       312.5769 deg
Eccentricity:    0.0001273
Arg of perigee:   246.4307 deg
Mean anomaly:     113.6276 deg
Mean motion:   15.02861616 rev/day
Decay rate:       4.05e-06 rev/day^2
Epoch rev:            4832
Checksum:              258

Satellite: MAST
Catalog number: 31126
Epoch time:      08023.22253305
Element set:     238
Inclination:      098.0592 deg
RA of node:       093.3698 deg
Eccentricity:    0.0095812
Arg of perigee:   064.5337 deg
Mean anomaly:     296.5776 deg
Mean motion:   14.53394447 rev/day
Decay rate:        5.8e-07 rev/day^2
Epoch rev:            4081
Checksum:              307

Satellite: CAPE1
Catalog number: 31130
Epoch time:      08024.68018317
Element set:     219
Inclination:      098.0609 deg
RA of node:       094.1150 deg
Eccentricity:    0.0103755
Arg of perigee:   062.0165 deg
Mean anomaly:     299.1494 deg
Mean motion:   14.51924186 rev/day
Decay rate:        1.1e-07 rev/day^2
Epoch rev:            4075
Checksum:              269

/EX






More information about the Keps mailing list